[[[{"header":{"parameterUnit":"kt","parameterCategory":2,"dx":1,"dy":1,"la1":30.253999710083008,"la2":30.299108505249023,"lo1":-89.0895004272461,"lo2":-89.04439544677734,"nx":28,"ny":28,"refTime":"2022-09-29T21:00:00:Z","depth":"0","parameterNumber":2,"parameterNumberName":"U-component_of_CURRENTS"},"data":[-0.1333,-0.1251,-0.1217,-0.1044,-0.0996,-0.0829,-0.0748,-0.0598,-0.0413,0.0058,0.0449,0.0703,0.1246,0.1833,0.2134,0.2034,0.1821,0.181,0.1601,0.1559,0.148,0.1405,0.1496,0.2152,0.2153,0.1796,0.1795,0.1795,-0.1393,-0.1358,-0.1324,-0.126,-0.1174,-0.12,-0.1117,-0.1005,-0.0823,-0.0603,-0.0395,0.0184,0.0569,0.0774,0.1192,0.13,0.1025,0.1273,0.1119,0.1012,0.0792,0.0878,0.1414,0.1414,0.1414,0.1413,0.1413,0.1413,-0.1493,-0.1469,-0.1443,-0.1405,-0.1379,-0.131,-0.1247,-0.1205,-0.1109,-0.0918,-0.0893,-0.0578,-0.0211,0.0096,0.0103,0.039,0.0099,0.047,0.0451,0.0264,0.0295,0.002,0.0345,0.0342,0.034,0.0337,0.0335,0,-0.1549,-0.1555,-0.154,-0.1514,-0.149,-0.1469,-0.1442,-0.1418,-0.1403,-0.1334,-0.1181,-0.1053,-0.0824,-0.0527,-0.0374,-0.034,-0.0434,-0.0415,-0.0272,0.0075,-0.0017,-0.0046,-0.0498,-0.0248,-0.0255,-0.026,-0.0263,-0.0266,-0.161,-0.1599,-0.1608,-0.1593,-0.1588,-0.1579,-0.1559,-0.1581,-0.1551,-0.1493,-0.1444,-0.1335,-0.1192,-0.1029,-0.0917,-0.08,-0.0863,-0.0575,-0.0601,-0.0403,-0.0375,-0.053,-0.0575,-0.0336,-0.0327,-0.032,-0.0314,0,-0.1631,-0.1644,-0.1641,-0.1647,-0.1647,-0.1637,-0.1639,-0.1616,-0.1626,-0.1568,-0.1553,-0.1532,-0.1422,-0.1418,-0.1359,-0.1322,-0.1126,-0.1165,-0.0949,-0.0888,-0.0507,-0.0502,-0.0372,-0.0392,-0.0907,-0.0902,-0.0897,0,-0.1667,-0.1665,-0.1676,-0.1667,-0.1663,-0.1684,-0.1672,-0.1683,-0.1675,-0.1637,-0.1665,-0.1609,-0.1634,-0.1578,-0.1571,-0.1419,-0.1506,-0.1342,-0.1307,-0.1143,-0.1112,-0.0925,-0.0908,-0.1536,-0.1537,-0.1538,-0.1538,0,-0.1671,-0.1697,-0.1694,-0.17,-0.1717,-0.1716,-0.1724,-0.1731,-0.1727,-0.1711,-0.1688,-0.1692,-0.1658,-0.1648,-0.1607,-0.1642,-0.1537,-0.1582,-0.1374,-0.1361,-0.1146,-0.1112,-0.0837,-0.154,-0.154,-0.154,-0.154,0,-0.1695,-0.1695,-0.1705,-0.1717,-0.1721,-0.1732,-0.1729,-0.1746,-0.1745,-0.174,-0.1736,-0.1727,-0.1719,-0.1725,-0.169,-0.1711,-0.1675,-0.1655,-0.165,-0.1454,-0.1433,-0.1132,-0.1025,-0.0846,-0.1585,-0.1586,-0.1587,0,-0.1683,-0.1696,-0.1707,-0.1723,-0.1728,-0.1738,-0.1756,-0.1765,-0.1762,-0.1751,-0.1757,-0.1749,-0.1772,-0.1754,-0.1752,-0.1726,-0.17,-0.1742,-0.1644,-0.1641,-0.1454,-0.1408,-0.1189,-0.1058,-0.1598,-0.1597,-0.1596,0,-0.167,-0.1685,-0.1685,-0.1684,-0.1705,-0.171,-0.1736,-0.1745,-0.1739,-0.1754,-0.174,-0.1777,-0.1758,-0.1763,-0.1761,-0.1747,-0.1715,-0.1729,-0.1727,-0.167,-0.1641,-0.1447,-0.1421,-0.1714,-0.1713,-0.1713,-0.1605,0,-0.1664,-0.1667,-0.1676,-0.1683,-0.1693,-0.1705,-0.1715,-0.1721,-0.1716,-0.1716,-0.1727,-0.1732,-0.1732,-0.1745,-0.1745,-0.1746,-0.172,-0.1725,-0.1696,-0.1714,-0.1664,-0.1657,-0.1729,-0.1729,-0.1729,-0.1728,0,0,-0.1644,-0.1645,-0.164,-0.1653,-0.1657,-0.1653,-0.1667,-0.1676,-0.1682,-0.168,-0.1671,-0.1691,-0.1697,-0.1711,-0.1721,-0.1732,-0.1702,-0.1711,-0.1715,-0.1714,-0.1713,-0.1666,-0.166,-0.1728,-0.1727,-0.1727,-0.1727,0,-0.1637,-0.1628,-0.1633,-0.1641,-0.1644,-0.1647,-0.165,-0.1653,-0.1648,-0.1668,-0.1655,-0.1661,-0.1682,-0.1681,-0.1686,-0.1725,-0.1685,-0.1731,-0.1734,-0.1713,-0.1712,-0.1712,-0.1666,-0.1661,-0.1726,-0.1726,-0.1726,0,-0.162,-0.1616,-0.1615,-0.1619,-0.162,-0.1634,-0.1614,-0.1622,-0.1631,-0.1612,-0.1621,-0.1624,-0.1631,-0.165,-0.1658,-0.1645,-0.1657,-0.1674,-0.1677,-0.1669,-0.1646,-0.1646,-0.1646,-0.1641,-0.1641,-0.164,0,0,-0.1614,-0.1613,-0.1614,-0.1618,-0.1621,-0.1617,-0.162,-0.1611,-0.1613,-0.1609,-0.1604,-0.1605,-0.1619,-0.1618,-0.1631,-0.1653,-0.1626,-0.1664,-0.1668,-0.1671,-0.1665,-0.1643,-0.1643,-0.1639,-0.1639,-0.1639,0,0,-0.1612,-0.1606,-0.1594,-0.1599,-0.1604,-0.1607,-0.1611,-0.1603,-0.1603,-0.1594,-0.1582,-0.1581,-0.1599,-0.1597,-0.1582,-0.1617,-0.1601,-0.1605,-0.1611,-0.1616,-0.162,-0.1607,-0.1555,0,0,0,0,0,-0.1602,-0.161,-0.1599,-0.1599,-0.1599,-0.1615,-0.1616,-0.1598,-0.1581,-0.1585,-0.1578,-0.1563,-0.1585,-0.1571,-0.1574,-0.1586,-0.1623,-0.1626,-0.1629,-0.1643,-0.1649,-0.1653,0,0,0,0,0,0,-0.1602,-0.1602,-0.16,-0.1602,-0.1602,-0.1614,-0.1585,-0.1581,-0.1579,-0.1574,-0.1566,-0.1563,-0.1553,-0.1568,-0.1572,-0.1582,-0.1554,-0.1624,-0.1627,-0.1629,-0.1645,-0.1649,-0.1653,0,0,0,0,0,-0.1602,-0.1602,-0.1601,-0.1602,-0.1602,-0.1586,-0.1583,-0.1579,-0.1574,-0.1568,-0.1564,-0.1559,-0.1555,-0.1556,-0.157,-0.1581,-0.1552,-0.1553,-0.1626,-0.1628,-0.1629,-0.1647,0,0,0,0,0,0,-0.1602,-0.1602,-0.1601,-0.1601,-0.1586,-0.1584,-0.1581,-0.1578,-0.1568,-0.1565,-0.1562,-0.1558,-0.1556,-0.1556,-0.1558,-0.1581,-0.155,-0.1551,-0.1552,-0.1627,-0.1629,-0.163,0,0,0,0,0,0,-0.1602,-0.1602,-0.1601,-0.1581,-0.1579,-0.1583,-0.158,-0.1599,-0.1568,-0.1562,-0.1559,-0.156,-0.1553,-0.1557,-0.1558,-0.1589,-0.1548,-0.155,-0.155,-0.1551,-0.1628,-0.163,0,0,0,0,0,0,-0.1602,-0.1602,-0.1581,-0.1579,-0.1577,-0.1577,-0.16,-0.1598,-0.1556,-0.1563,-0.1551,-0.1549,-0.1554,-0.1554,-0.1559,-0.1589,-0.1589,-0.1548,-0.1549,-0.155,-0.155,0,0,0,0,0,0,0,-0.1602,-0.1602,-0.1601,-0.1578,-0.1575,-0.1602,-0.1602,-0.1602,-0.1555,-0.1553,-0.1552,-0.155,-0.1541,-0.1543,-0.1544,-0.159,0,0,-0.1548,-0.1549,0,0,0,0,0,0,0,0,-0.1602,-0.1602,-0.1601,-0.1601,-0.1601,-0.1602,-0.1602,-0.1602,-0.1555,-0.1554,-0.1552,-0.1551,-0.1542,-0.1543,-0.1544,0,0,0,0,0,0,0,0,0,0,0,0,0,0,0,-0.1601,-0.1601,0,-0.1602,-0.1602,-0.1602,-0.1555,-0.1554,-0.1552,-0.1551,-0.1542,-0.1543,-0.1544,0,0,0,0,0,0,0,0,0,0,0,0,0,0,0,0,0,0,0,0,0,0,0,0,0,0,0,0,0,0,0,0,0,0,0,0,0,0,0,0,0,0,0,0,0,0,0,0,0,0,0,0,0,0,0,0,0,0,0,0,0,0,0,0,0,0,0,0,0]}],[{"header":{"parameterUnit":"kt","parameterCategory":2,"dx":1,"dy":1,"la1":30.253999710083008,"la2":30.299108505249023,"lo1":-89.0895004272461,"lo2":-89.04439544677734,"nx":28,"ny":28,"refTime":"2022-09-29T21:00:00:Z","depth":"0","parameterNumber":3,"parameterNumberName":"V-component_of_CURRENTS"},"data":[-0.1058,-0.1112,-0.1139,-0.1151,-0.1167,-0.1107,-0.1053,-0.088,-0.0721,-0.0369,-0.0143,-0.0021,-0.005,-0.0748,-0.1136,-0.1225,-0.1325,-0.1423,-0.137,-0.1375,-0.1373,-0.1371,-0.1324,-0.1398,-0.1399,-0.1542,-0.1544,-0.1546,-0.1054,-0.1099,-0.1164,-0.1214,-0.1221,-0.1248,-0.122,-0.1131,-0.0973,-0.0806,-0.0634,-0.0479,-0.0551,-0.0632,-0.0798,-0.0931,-0.1014,-0.1025,-0.1264,-0.1188,-0.1012,-0.0945,-0.0939,-0.0939,-0.0939,-0.0939,-0.0939,-0.0939,-0.1047,-0.1091,-0.1146,-0.1207,-0.1249,-0.1256,-0.1245,-0.1217,-0.1163,-0.1001,-0.0986,-0.0772,-0.0821,-0.0703,-0.0722,-0.0811,-0.0841,-0.0891,-0.0976,-0.108,-0.0956,-0.0691,-0.0662,-0.0661,-0.0661,-0.0661,-0.0661,0,-0.103,-0.106,-0.1106,-0.1179,-0.1226,-0.127,-0.1298,-0.1308,-0.1291,-0.1252,-0.114,-0.1064,-0.0976,-0.0891,-0.0808,-0.0793,-0.099,-0.0865,-0.0992,-0.11,-0.1205,-0.1135,-0.0943,-0.0979,-0.0981,-0.0982,-0.0983,-0.0984,-0.0998,-0.1031,-0.1107,-0.1144,-0.1172,-0.123,-0.1259,-0.1284,-0.1289,-0.1263,-0.1251,-0.12,-0.1099,-0.1028,-0.0963,-0.093,-0.0968,-0.0909,-0.0901,-0.0997,-0.107,-0.1171,-0.1108,-0.1001,-0.0999,-0.0997,-0.0996,0,-0.0978,-0.1005,-0.1064,-0.1114,-0.1134,-0.1178,-0.1229,-0.1253,-0.1266,-0.1271,-0.1277,-0.1241,-0.1186,-0.1146,-0.1135,-0.1094,-0.1093,-0.0998,-0.1018,-0.1007,-0.1002,-0.1067,-0.1244,-0.1175,-0.0981,-0.0978,-0.0975,0,-0.095,-0.0988,-0.1032,-0.1058,-0.1117,-0.1126,-0.1179,-0.119,-0.1207,-0.1209,-0.1202,-0.1179,-0.1179,-0.1149,-0.1125,-0.1052,-0.1134,-0.0993,-0.0988,-0.1008,-0.0996,-0.1093,-0.1158,-0.1138,-0.1136,-0.1135,-0.1134,0,-0.0919,-0.0966,-0.1013,-0.1027,-0.1067,-0.1089,-0.1107,-0.1116,-0.1132,-0.1145,-0.1158,-0.1152,-0.1146,-0.115,-0.1073,-0.1083,-0.1089,-0.1114,-0.0982,-0.0976,-0.1,-0.0989,-0.1142,-0.1133,-0.1132,-0.1132,-0.1132,0,-0.0897,-0.0926,-0.0972,-0.1024,-0.1034,-0.1049,-0.1085,-0.1089,-0.1091,-0.1088,-0.1075,-0.1052,-0.1048,-0.0988,-0.1014,-0.0985,-0.0979,-0.0974,-0.0979,-0.0832,-0.0804,-0.0943,-0.0966,-0.1072,-0.1042,-0.1041,-0.104,0,-0.0876,-0.0918,-0.0928,-0.0967,-0.0994,-0.0995,-0.1002,-0.1005,-0.0999,-0.1011,-0.0972,-0.0968,-0.0906,-0.0904,-0.0892,-0.0893,-0.0909,-0.085,-0.0936,-0.094,-0.0814,-0.082,-0.0836,-0.095,-0.1023,-0.1025,-0.1026,0,-0.0861,-0.0901,-0.0906,-0.0934,-0.0943,-0.0953,-0.0952,-0.0962,-0.0978,-0.0946,-0.0966,-0.0901,-0.0889,-0.087,-0.0835,-0.0836,-0.0884,-0.0823,-0.0824,-0.0898,-0.0971,-0.0818,-0.0816,-0.0866,-0.0867,-0.0868,-0.1013,0,-0.0873,-0.0894,-0.0898,-0.0921,-0.0924,-0.0934,-0.093,-0.0929,-0.0923,-0.0918,-0.0902,-0.086,-0.0843,-0.0817,-0.0791,-0.0795,-0.0815,-0.0788,-0.0792,-0.0803,-0.0865,-0.0875,-0.0746,-0.0745,-0.0745,-0.0744,0,0,-0.0862,-0.0887,-0.0889,-0.0901,-0.0911,-0.0905,-0.0919,-0.091,-0.0898,-0.09,-0.0883,-0.0844,-0.0809,-0.0793,-0.0781,-0.0762,-0.0792,-0.0764,-0.0786,-0.0791,-0.0795,-0.0855,-0.0866,-0.0744,-0.0744,-0.0744,-0.0743,0,-0.087,-0.0879,-0.0891,-0.0895,-0.0902,-0.0902,-0.0905,-0.0902,-0.0898,-0.0885,-0.0867,-0.0845,-0.0806,-0.0786,-0.0771,-0.0759,-0.0774,-0.0743,-0.0761,-0.0782,-0.0787,-0.0792,-0.0852,-0.0862,-0.0743,-0.0743,-0.0743,0,-0.0872,-0.0882,-0.0888,-0.0896,-0.0898,-0.0903,-0.0898,-0.0898,-0.0899,-0.0876,-0.0865,-0.084,-0.0809,-0.0785,-0.0771,-0.0769,-0.0771,-0.074,-0.0741,-0.0751,-0.0773,-0.0778,-0.0782,-0.0727,-0.0727,-0.0728,0,0,-0.0877,-0.0889,-0.0894,-0.0898,-0.09,-0.09,-0.0898,-0.0898,-0.0887,-0.0883,-0.0863,-0.0839,-0.0815,-0.0801,-0.0776,-0.0753,-0.0774,-0.074,-0.074,-0.0741,-0.0751,-0.0773,-0.0778,-0.0728,-0.0728,-0.0728,0,0,-0.0874,-0.0889,-0.0897,-0.0901,-0.0901,-0.0896,-0.0894,-0.0894,-0.0882,-0.0881,-0.0858,-0.0851,-0.0826,-0.0807,-0.0817,-0.0772,-0.0767,-0.0764,-0.079,-0.079,-0.0791,-0.0811,-0.08,0,0,0,0,0,-0.0888,-0.0889,-0.0896,-0.0898,-0.0902,-0.0897,-0.0896,-0.0892,-0.0894,-0.0892,-0.0876,-0.0862,-0.0806,-0.0815,-0.0807,-0.0798,-0.0734,-0.0733,-0.0732,-0.0759,-0.076,-0.0761,0,0,0,0,0,0,-0.0889,-0.0891,-0.0896,-0.0893,-0.0894,-0.0897,-0.0896,-0.0895,-0.0894,-0.0894,-0.0867,-0.0861,-0.0843,-0.0817,-0.081,-0.0802,-0.0802,-0.0734,-0.0733,-0.0732,-0.076,-0.076,-0.0761,0,0,0,0,0,-0.0889,-0.0891,-0.0901,-0.0893,-0.0893,-0.0888,-0.0896,-0.0895,-0.0895,-0.0868,-0.0863,-0.0892,-0.0844,-0.0837,-0.0813,-0.0805,-0.0807,-0.0804,-0.0733,-0.0732,-0.0732,-0.076,0,0,0,0,0,0,-0.0889,-0.0886,-0.0901,-0.09,-0.0893,-0.0888,-0.0888,-0.0895,-0.0868,-0.0864,-0.0891,-0.0891,-0.0844,-0.0838,-0.0833,-0.0808,-0.081,-0.0808,-0.0806,-0.0733,-0.0732,-0.0732,0,0,0,0,0,0,-0.0885,-0.0886,-0.0901,-0.0902,-0.0901,-0.0887,-0.0888,-0.0863,-0.0866,-0.0892,-0.0892,-0.0891,-0.0842,-0.084,-0.0835,-0.0798,-0.0813,-0.0811,-0.0809,-0.0808,-0.0732,-0.0732,0,0,0,0,0,0,-0.0885,-0.0886,-0.0902,-0.0901,-0.0901,-0.0893,-0.0863,-0.0862,-0.0888,-0.0892,-0.0888,-0.0888,-0.0843,-0.0839,-0.0837,-0.0801,-0.0799,-0.0813,-0.0811,-0.081,-0.0809,0,0,0,0,0,0,0,-0.0885,-0.0885,-0.0905,-0.0901,-0.0901,-0.0894,-0.0894,-0.0894,-0.0888,-0.0888,-0.0888,-0.0888,-0.0826,-0.0823,-0.0821,-0.0804,0,0,-0.0813,-0.0812,0,0,0,0,0,0,0,0,-0.0884,-0.0885,-0.0905,-0.0905,-0.0905,-0.0894,-0.0894,-0.0894,-0.0888,-0.0888,-0.0888,-0.0888,-0.0825,-0.0823,-0.0821,0,0,0,0,0,0,0,0,0,0,0,0,0,0,0,-0.0905,-0.0905,0,-0.0894,-0.0894,-0.0894,-0.0888,-0.0888,-0.0888,-0.0888,-0.0825,-0.0823,-0.0821,0,0,0,0,0,0,0,0,0,0,0,0,0,0,0,0,0,0,0,0,0,0,0,0,0,0,0,0,0,0,0,0,0,0,0,0,0,0,0,0,0,0,0,0,0,0,0,0,0,0,0,0,0,0,0,0,0,0,0,0,0,0,0,0,0,0,0,0,0]}]],[[{"header":{"parameterUnit":"kt","parameterCategory":2,"dx":1,"dy":1,"la1":30.253999710083008,"la2":30.299108505249023,"lo1":-89.0895004272461,"lo2":-89.04439544677734,"nx":28,"ny":28,"refTime":"2022-09-29T21:00:00:Z","depth":"2","parameterNumber":2,"parameterNumberName":"U-component_of_CURRENTS"},"data":[-0.1382,-0.1305,-0.1272,-0.1103,-0.1055,-0.0888,-0.0803,-0.0647,-0.0465,-0.0164,0.0092,0.0262,0.0335,0.0563,0.0586,0.071,0.0415,0.068,0.0268,0.007,0.002,-0.0137,-0.0084,0,0,0,0,0,-0.1438,-0.1405,-0.1375,-0.1312,-0.1232,-0.1258,-0.1175,-0.106,-0.0872,-0.0661,-0.0453,-0.0147,0.0149,0.0209,0.0429,0.0449,0.033,0.0383,0.0254,0.02,0.015,0.0217,0.069,0.069,0.0691,0.0692,0,0,-0.1529,-0.1509,-0.1483,-0.145,-0.1429,-0.1363,-0.1301,-0.1261,-0.1168,-0.0977,-0.0954,-0.0648,-0.0547,-0.0134,-0.0068,-0.0042,-0.0174,-0.0193,-0.022,-0.0253,-0.0196,-0.0139,0.0162,0.0159,0.0157,0.0155,0.0153,0,-0.1579,-0.1584,-0.1571,-0.155,-0.1531,-0.1516,-0.1495,-0.1474,-0.1463,-0.14,-0.1246,-0.1119,-0.0899,-0.0622,-0.0475,-0.0446,-0.0695,-0.0541,-0.0983,-0.0665,-0.0619,-0.061,-0.0643,-0.042,-0.0426,-0.043,-0.0433,-0.0436,-0.1634,-0.1623,-0.1632,-0.162,-0.1617,-0.1616,-0.1601,-0.1628,-0.1604,-0.1553,-0.1508,-0.1405,-0.1262,-0.1103,-0.0995,-0.088,-0.1067,-0.0689,-0.0723,-0.1107,-0.1093,-0.1109,-0.1123,-0.05,-0.0492,-0.0485,-0.048,0,-0.1654,-0.1663,-0.166,-0.1666,-0.1668,-0.1662,-0.1673,-0.1657,-0.1673,-0.1625,-0.1615,-0.1596,-0.1489,-0.1481,-0.1429,-0.139,-0.1308,-0.1235,-0.1048,-0.0992,-0.1159,-0.1165,-0.1004,-0.0996,-0.099,-0.0984,-0.0979,0,-0.1688,-0.1684,-0.1694,-0.1684,-0.1684,-0.1702,-0.1698,-0.1709,-0.1711,-0.1679,-0.171,-0.1661,-0.1689,-0.1635,-0.1627,-0.1478,-0.1567,-0.1405,-0.1372,-0.1237,-0.1208,-0.1617,-0.1619,-0.1603,-0.1604,-0.1604,-0.1605,0,-0.1696,-0.1713,-0.1708,-0.1713,-0.1727,-0.1727,-0.1737,-0.1746,-0.1747,-0.1742,-0.1725,-0.1733,-0.1706,-0.17,-0.1656,-0.1692,-0.1595,-0.1642,-0.1436,-0.1422,-0.1239,-0.1207,-0.1606,-0.1606,-0.1606,-0.1607,-0.1607,0,-0.1718,-0.1714,-0.1719,-0.1729,-0.1732,-0.1741,-0.1743,-0.1758,-0.1762,-0.176,-0.1761,-0.1755,-0.1752,-0.1757,-0.1728,-0.1746,-0.1715,-0.1697,-0.1693,-0.1499,-0.1476,-0.1214,-0.1121,-0.163,-0.1631,-0.1632,-0.1632,0,-0.1714,-0.1718,-0.1725,-0.1736,-0.1737,-0.1745,-0.1762,-0.1769,-0.1769,-0.1764,-0.177,-0.1768,-0.1784,-0.1773,-0.1774,-0.1754,-0.1732,-0.1768,-0.1684,-0.1681,-0.1496,-0.1455,-0.127,-0.1149,-0.1641,-0.164,-0.164,0,-0.1706,-0.1711,-0.171,-0.1708,-0.1721,-0.1724,-0.1745,-0.1753,-0.1749,-0.1762,-0.1753,-0.1785,-0.1771,-0.1776,-0.1775,-0.1767,-0.1743,-0.1752,-0.1751,-0.1697,-0.1685,-0.1491,-0.1466,-0.1748,-0.1747,-0.1747,-0.1647,0,-0.1703,-0.1701,-0.1706,-0.1706,-0.1712,-0.1721,-0.1727,-0.1732,-0.1727,-0.1727,-0.1738,-0.1744,-0.1745,-0.1757,-0.1756,-0.1762,-0.1737,-0.1744,-0.1718,-0.1737,-0.169,-0.1685,-0.1741,-0.1741,-0.1741,-0.174,0,0,-0.1692,-0.1685,-0.1676,-0.1682,-0.1684,-0.1679,-0.1687,-0.1694,-0.1696,-0.1694,-0.1687,-0.1705,-0.171,-0.1725,-0.1734,-0.1743,-0.1717,-0.1725,-0.1736,-0.1736,-0.1735,-0.1691,-0.1687,-0.174,-0.174,-0.1739,-0.1739,0,-0.1684,-0.1672,-0.1671,-0.1675,-0.1672,-0.1673,-0.1674,-0.1673,-0.1667,-0.1684,-0.1671,-0.1677,-0.1696,-0.1695,-0.1699,-0.1736,-0.1701,-0.1742,-0.1747,-0.1733,-0.1734,-0.1734,-0.1691,-0.1687,-0.1738,-0.1739,-0.1739,0,-0.1671,-0.1662,-0.1659,-0.1655,-0.1652,-0.1662,-0.1642,-0.1645,-0.1651,-0.1633,-0.164,-0.1643,-0.1648,-0.1666,-0.1673,-0.1661,-0.1675,-0.1689,-0.1691,-0.1684,-0.1669,-0.167,-0.167,-0.1656,-0.1656,-0.1655,0,0,-0.1665,-0.1659,-0.1654,-0.1653,-0.1654,-0.1646,-0.1647,-0.1636,-0.1635,-0.163,-0.1625,-0.1625,-0.1637,-0.1637,-0.1647,-0.1668,-0.1644,-0.1678,-0.1682,-0.1685,-0.168,-0.1666,-0.1667,-0.1654,-0.1654,-0.1654,0,0,-0.1664,-0.165,-0.1637,-0.1636,-0.1637,-0.1634,-0.1636,-0.1627,-0.1625,-0.1616,-0.1604,-0.1603,-0.1619,-0.1617,-0.1603,-0.1635,-0.162,-0.1623,-0.1631,-0.1636,-0.1639,-0.1628,-0.1578,0,0,0,0,0,-0.1651,-0.1654,-0.1643,-0.1641,-0.1632,-0.1643,-0.1642,-0.1622,-0.1606,-0.1609,-0.1601,-0.1587,-0.1605,-0.1592,-0.1595,-0.1607,-0.1639,-0.1642,-0.1644,-0.166,-0.1666,-0.167,0,0,0,0,0,0,-0.165,-0.1648,-0.1643,-0.164,-0.1638,-0.1642,-0.1614,-0.1609,-0.1604,-0.1599,-0.159,-0.1587,-0.1577,-0.159,-0.1593,-0.1604,-0.1577,-0.164,-0.1643,-0.1645,-0.1662,-0.1666,-0.167,0,0,0,0,0,-0.1649,-0.1648,-0.1633,-0.164,-0.1639,-0.1618,-0.1612,-0.1608,-0.1601,-0.1593,-0.1589,-0.1584,-0.1578,-0.1579,-0.1591,-0.1603,-0.1574,-0.1576,-0.1642,-0.1644,-0.1645,-0.1664,0,0,0,0,0,0,-0.1649,-0.1648,-0.1633,-0.1632,-0.1625,-0.1617,-0.1613,-0.1607,-0.1595,-0.1592,-0.1588,-0.1584,-0.158,-0.158,-0.1581,-0.1603,-0.1573,-0.1574,-0.1575,-0.1643,-0.1645,-0.1646,0,0,0,0,0,0,-0.1649,-0.1647,-0.1633,-0.1614,-0.1611,-0.1616,-0.1613,-0.163,-0.1595,-0.159,-0.1587,-0.1586,-0.1578,-0.1581,-0.1581,-0.161,-0.1572,-0.1573,-0.1573,-0.1574,-0.1644,-0.1645,0,0,0,0,0,0,-0.1648,-0.1647,-0.1614,-0.1612,-0.161,-0.1603,-0.1631,-0.1622,-0.1581,-0.1591,-0.1577,-0.1575,-0.1579,-0.1579,-0.1582,-0.161,-0.161,-0.1572,-0.1572,-0.1573,-0.1573,0,0,0,0,0,0,0,-0.1648,-0.1656,-0.1635,-0.161,-0.1608,-0.1628,-0.1628,-0.1628,-0.1581,-0.1579,-0.1577,-0.1575,-0.1565,-0.1567,-0.1568,-0.1611,0,0,-0.1571,-0.1572,0,0,0,0,0,0,0,0,-0.1656,-0.1656,-0.1635,-0.1635,-0.1635,-0.1628,-0.1628,-0.1628,-0.158,-0.1579,-0.1577,-0.1576,-0.1566,-0.1567,-0.1568,0,0,0,0,0,0,0,0,0,0,0,0,0,0,0,-0.1635,-0.1635,0,-0.1628,-0.1628,-0.1628,-0.158,-0.1579,-0.1578,-0.1577,-0.1566,-0.1567,-0.1567,0,0,0,0,0,0,0,0,0,0,0,0,0,0,0,0,0,0,0,0,0,0,0,0,0,0,0,0,0,0,0,0,0,0,0,0,0,0,0,0,0,0,0,0,0,0,0,0,0,0,0,0,0,0,0,0,0,0,0,0,0,0,0,0,0,0,0,0,0]}],[{"header":{"parameterUnit":"kt","parameterCategory":2,"dx":1,"dy":1,"la1":30.253999710083008,"la2":30.299108505249023,"lo1":-89.0895004272461,"lo2":-89.04439544677734,"nx":28,"ny":28,"refTime":"2022-09-29T21:00:00:Z","depth":"2","parameterNumber":3,"parameterNumberName":"V-component_of_CURRENTS"},"data":[-0.0789,-0.0839,-0.0865,-0.0886,-0.0904,-0.0857,-0.0811,-0.0652,-0.0501,-0.0246,-0.0066,-0.0027,-0.0155,-0.0164,-0.031,-0.0323,-0.0374,-0.0325,-0.0325,-0.0403,-0.041,-0.0529,-0.0462,0,0,0,0,0,-0.0785,-0.0829,-0.0884,-0.093,-0.094,-0.0962,-0.0932,-0.0851,-0.0719,-0.0563,-0.0421,-0.0318,-0.03,-0.0313,-0.0329,-0.0402,-0.0452,-0.0397,-0.0468,-0.0476,-0.0485,-0.0437,-0.0395,-0.0395,-0.0395,-0.0395,0,0,-0.0781,-0.0818,-0.087,-0.0922,-0.0957,-0.0963,-0.095,-0.0921,-0.0869,-0.0719,-0.0712,-0.0523,-0.0586,-0.0404,-0.0433,-0.0435,-0.0465,-0.0477,-0.0484,-0.0491,-0.044,-0.044,-0.0401,-0.0401,-0.0401,-0.0401,-0.0401,0,-0.0769,-0.0798,-0.0836,-0.09,-0.0939,-0.0969,-0.0989,-0.0989,-0.0965,-0.0919,-0.0821,-0.0758,-0.0674,-0.0591,-0.0513,-0.0492,-0.055,-0.0508,-0.0555,-0.0576,-0.0585,-0.0576,-0.0578,-0.0577,-0.0578,-0.0578,-0.0579,-0.0579,-0.0746,-0.0777,-0.0841,-0.0872,-0.0898,-0.0941,-0.0961,-0.097,-0.0965,-0.0921,-0.0902,-0.0841,-0.0761,-0.0668,-0.061,-0.0568,-0.0551,-0.0533,-0.0547,-0.0603,-0.0592,-0.0593,-0.0593,-0.059,-0.0589,-0.0588,-0.0587,0,-0.0731,-0.0759,-0.0809,-0.0851,-0.0867,-0.0899,-0.0933,-0.0942,-0.0939,-0.0924,-0.0923,-0.0872,-0.0813,-0.0758,-0.0712,-0.0683,-0.0637,-0.0595,-0.0612,-0.0599,-0.0606,-0.0603,-0.0603,-0.0601,-0.0599,-0.0597,-0.0596,0,-0.0711,-0.0744,-0.0786,-0.0809,-0.0853,-0.0862,-0.0894,-0.0898,-0.0895,-0.0885,-0.0866,-0.0836,-0.081,-0.0762,-0.0735,-0.067,-0.0702,-0.0632,-0.0621,-0.0627,-0.0621,-0.0657,-0.0653,-0.0691,-0.0691,-0.069,-0.069,0,-0.0681,-0.073,-0.0772,-0.0786,-0.082,-0.0837,-0.085,-0.0848,-0.0852,-0.0842,-0.0838,-0.0817,-0.08,-0.0781,-0.0715,-0.0728,-0.0683,-0.0702,-0.0623,-0.062,-0.0609,-0.0603,-0.0689,-0.0689,-0.0689,-0.0689,-0.0688,0,-0.0666,-0.0693,-0.0742,-0.0779,-0.0788,-0.0808,-0.0823,-0.083,-0.0816,-0.0807,-0.0788,-0.0761,-0.0748,-0.0711,-0.0698,-0.0688,-0.0672,-0.0653,-0.0655,-0.0562,-0.0539,-0.0601,-0.0619,-0.0683,-0.0682,-0.0682,-0.0681,0,-0.0634,-0.0683,-0.0695,-0.0736,-0.0761,-0.076,-0.0769,-0.077,-0.0761,-0.0757,-0.0723,-0.0712,-0.0682,-0.0674,-0.0656,-0.0635,-0.0636,-0.0615,-0.0614,-0.0615,-0.0546,-0.0558,-0.0559,-0.0615,-0.0676,-0.0676,-0.0677,0,-0.061,-0.0654,-0.066,-0.0683,-0.07,-0.071,-0.072,-0.0726,-0.0732,-0.0715,-0.0716,-0.0683,-0.0664,-0.0648,-0.062,-0.0606,-0.063,-0.0588,-0.0586,-0.0625,-0.0642,-0.0562,-0.0559,-0.0599,-0.0599,-0.0599,-0.0672,0,-0.0607,-0.0631,-0.0641,-0.0669,-0.0676,-0.0692,-0.0691,-0.0693,-0.0688,-0.068,-0.0666,-0.0635,-0.0614,-0.0602,-0.0583,-0.0578,-0.0585,-0.0555,-0.0539,-0.0556,-0.0587,-0.0591,-0.0535,-0.0534,-0.0534,-0.0533,0,0,-0.0579,-0.0609,-0.0612,-0.0631,-0.0641,-0.0635,-0.0654,-0.0651,-0.0644,-0.0641,-0.0632,-0.0597,-0.0573,-0.0557,-0.0561,-0.0546,-0.0552,-0.054,-0.0546,-0.0548,-0.055,-0.058,-0.0585,-0.0532,-0.0532,-0.0532,-0.0531,0,-0.0579,-0.0589,-0.0608,-0.0616,-0.0627,-0.0626,-0.0632,-0.0632,-0.0629,-0.0627,-0.0605,-0.059,-0.0562,-0.0543,-0.053,-0.0539,-0.0526,-0.053,-0.0551,-0.0541,-0.0544,-0.0546,-0.0577,-0.0581,-0.053,-0.053,-0.053,0,-0.0567,-0.0578,-0.0586,-0.06,-0.0603,-0.0615,-0.0602,-0.0609,-0.0616,-0.0585,-0.0584,-0.0563,-0.0534,-0.0523,-0.0515,-0.0506,-0.0506,-0.0494,-0.0496,-0.0497,-0.0485,-0.0488,-0.0491,-0.0457,-0.0457,-0.0457,0,0,-0.0566,-0.0582,-0.0588,-0.0599,-0.0603,-0.0601,-0.0603,-0.0602,-0.0594,-0.0592,-0.0573,-0.0552,-0.0534,-0.0523,-0.0504,-0.0491,-0.0487,-0.0487,-0.049,-0.0493,-0.0495,-0.0485,-0.0487,-0.0457,-0.0457,-0.0457,0,0,-0.056,-0.0575,-0.0579,-0.0592,-0.0596,-0.0591,-0.0595,-0.0593,-0.0585,-0.0584,-0.0557,-0.055,-0.0539,-0.0517,-0.0519,-0.0497,-0.048,-0.0479,-0.0515,-0.0519,-0.0522,-0.053,-0.0492,0,0,0,0,0,-0.0564,-0.0575,-0.0578,-0.0581,-0.0589,-0.0592,-0.0591,-0.0587,-0.0585,-0.059,-0.0573,-0.0554,-0.0513,-0.0514,-0.0507,-0.0509,-0.0454,-0.0455,-0.0455,-0.0498,-0.0502,-0.0506,0,0,0,0,0,0,-0.0565,-0.0569,-0.0578,-0.0575,-0.0576,-0.0591,-0.0581,-0.058,-0.0584,-0.0584,-0.0558,-0.0553,-0.0532,-0.0515,-0.051,-0.0512,-0.0494,-0.0455,-0.0455,-0.0455,-0.0499,-0.0503,-0.0506,0,0,0,0,0,-0.0566,-0.0569,-0.0586,-0.0574,-0.0575,-0.0572,-0.0581,-0.058,-0.0584,-0.0555,-0.0551,-0.0582,-0.0532,-0.0526,-0.0512,-0.0515,-0.0498,-0.0496,-0.0455,-0.0455,-0.0455,-0.0501,0,0,0,0,0,0,-0.0566,-0.0563,-0.0586,-0.0586,-0.0574,-0.0571,-0.0572,-0.058,-0.0555,-0.0551,-0.0576,-0.0576,-0.0533,-0.0528,-0.0523,-0.0518,-0.0501,-0.0499,-0.0498,-0.0455,-0.0455,-0.0455,0,0,0,0,0,0,-0.0562,-0.0563,-0.0586,-0.0585,-0.0585,-0.057,-0.0571,-0.0549,-0.0553,-0.0576,-0.0576,-0.0576,-0.0531,-0.0529,-0.0525,-0.0492,-0.0504,-0.0502,-0.05,-0.0499,-0.0455,-0.0455,0,0,0,0,0,0,-0.0562,-0.0563,-0.0585,-0.0585,-0.0585,-0.0579,-0.0549,-0.0552,-0.0573,-0.0577,-0.0573,-0.0573,-0.0532,-0.0528,-0.0527,-0.0496,-0.0493,-0.0504,-0.0502,-0.0501,-0.0501,0,0,0,0,0,0,0,-0.0562,-0.0558,-0.0589,-0.0585,-0.0584,-0.0582,-0.0582,-0.0582,-0.0573,-0.0573,-0.0573,-0.0573,-0.0515,-0.0513,-0.0511,-0.0499,0,0,-0.0504,-0.0503,0,0,0,0,0,0,0,0,-0.0557,-0.0558,-0.0589,-0.0589,-0.0589,-0.0582,-0.0582,-0.0582,-0.0573,-0.0573,-0.0573,-0.0573,-0.0515,-0.0513,-0.0511,0,0,0,0,0,0,0,0,0,0,0,0,0,0,0,-0.0589,-0.0589,0,-0.0582,-0.0582,-0.0582,-0.0573,-0.0573,-0.0573,-0.0573,-0.0514,-0.0513,-0.0511,0,0,0,0,0,0,0,0,0,0,0,0,0,0,0,0,0,0,0,0,0,0,0,0,0,0,0,0,0,0,0,0,0,0,0,0,0,0,0,0,0,0,0,0,0,0,0,0,0,0,0,0,0,0,0,0,0,0,0,0,0,0,0,0,0,0,0,0,0]}]],[[{"header":{"parameterUnit":"kt","parameterCategory":2,"dx":1,"dy":1,"la1":30.253999710083008,"la2":30.299108505249023,"lo1":-89.0895004272461,"lo2":-89.04439544677734,"nx":28,"ny":28,"refTime":"2022-09-29T21:00:00:Z","depth":"4","parameterNumber":2,"parameterNumberName":"U-component_of_CURRENTS"},"data":[-0.1143,-0.1144,-0.1121,-0.1017,-0.0976,-0.0961,-0.0965,-0.0988,-0.0909,-0.0925,-0.0836,-0.0848,-0.0712,-0.0772,-0.0568,-0.0561,-0.0655,-0.0537,-0.0534,-0.0751,-0.0771,-0.0789,-0.0835,0,0,0,0,0,-0.1189,-0.116,-0.1161,-0.1143,-0.1157,-0.115,-0.1179,-0.1211,-0.1222,-0.1054,-0.1066,-0.0917,-0.0751,-0.0726,-0.06,-0.0715,-0.0725,-0.0571,-0.0757,-0.0764,-0.0786,-0.0823,0,0,0,0,0,0,-0.1243,-0.1245,-0.1266,-0.1267,-0.1286,-0.1242,-0.1279,-0.1211,-0.1197,-0.1167,-0.1096,-0.0998,-0.0985,-0.0847,-0.078,-0.0701,-0.0695,-0.0704,-0.0728,-0.0749,-0.0765,-0.0716,-0.045,0,0,0,0,0,-0.1284,-0.1322,-0.1336,-0.1358,-0.1372,-0.1383,-0.139,-0.1371,-0.1377,-0.143,-0.126,-0.1165,-0.1028,-0.0957,-0.087,-0.0821,-0.1014,-0.0913,-0.0926,-0.1014,-0.0991,-0.0984,-0.1004,-0.0869,-0.0872,-0.0874,-0.0875,0,-0.1343,-0.1348,-0.1411,-0.142,-0.144,-0.147,-0.1475,-0.1523,-0.1509,-0.1479,-0.1439,-0.1358,-0.1324,-0.1095,-0.1124,-0.1017,-0.1015,-0.097,-0.1064,-0.1028,-0.1012,-0.1027,-0.1041,-0.0892,-0.0891,-0.089,-0.0888,0,-0.1372,-0.1403,-0.1425,-0.1467,-0.1482,-0.1497,-0.154,-0.154,-0.1572,-0.1543,-0.1542,-0.1533,-0.1432,-0.1422,-0.1358,-0.1315,-0.1226,-0.1156,-0.1348,-0.1333,-0.1068,-0.1075,-0.0921,-0.0915,-0.091,-0.0905,-0.0901,0,-0.1417,-0.1432,-0.1475,-0.1475,-0.1499,-0.1526,-0.1549,-0.1571,-0.1592,-0.1574,-0.1616,-0.1578,-0.1608,-0.1557,-0.1532,-0.1389,-0.1462,-0.131,-0.1276,-0.1503,-0.1507,-0.1484,-0.1487,-0.1471,-0.1472,-0.1473,-0.1474,0,-0.144,-0.1471,-0.1484,-0.1493,-0.1525,-0.1541,-0.1563,-0.159,-0.1603,-0.162,-0.1617,-0.1631,-0.1619,-0.1602,-0.1559,-0.1589,-0.149,-0.1524,-0.1337,-0.1325,-0.1491,-0.1492,-0.1475,-0.1475,-0.1476,-0.1476,-0.1477,0,-0.1467,-0.1473,-0.1491,-0.1518,-0.1524,-0.1544,-0.1568,-0.159,-0.1612,-0.1623,-0.1639,-0.1643,-0.1648,-0.1659,-0.1621,-0.1649,-0.1606,-0.1583,-0.1578,-0.1425,-0.14,-0.1479,-0.1485,-0.1486,-0.1486,-0.1487,-0.1488,0,-0.1475,-0.1485,-0.1495,-0.1517,-0.1523,-0.1543,-0.1567,-0.1585,-0.1601,-0.1614,-0.163,-0.1645,-0.1661,-0.1664,-0.1669,-0.165,-0.1622,-0.1668,-0.1565,-0.156,-0.1416,-0.1388,-0.1652,-0.1501,-0.1499,-0.1498,-0.1497,0,-0.147,-0.1484,-0.1487,-0.1492,-0.1512,-0.1518,-0.1549,-0.1565,-0.1575,-0.1602,-0.1609,-0.165,-0.1649,-0.1656,-0.1662,-0.1659,-0.1633,-0.1648,-0.1646,-0.1572,-0.1567,-0.1419,-0.1397,-0.1652,-0.1652,-0.1652,-0.1506,0,-0.1466,-0.1476,-0.1483,-0.1486,-0.1498,-0.1512,-0.1522,-0.1541,-0.1554,-0.1559,-0.1589,-0.1603,-0.1616,-0.1632,-0.1634,-0.1649,-0.1615,-0.163,-0.1602,-0.1628,-0.1558,-0.1551,-0.1622,-0.1621,-0.1621,-0.162,0,0,-0.146,-0.1456,-0.1454,-0.1459,-0.1467,-0.1472,-0.1482,-0.1496,-0.1512,-0.1518,-0.1521,-0.1558,-0.1569,-0.1591,-0.1605,-0.1616,-0.1586,-0.1604,-0.1623,-0.1624,-0.1624,-0.1559,-0.1553,-0.1619,-0.1619,-0.1619,-0.1619,0,-0.1442,-0.1444,-0.1448,-0.1453,-0.1458,-0.1459,-0.1467,-0.1472,-0.1479,-0.1507,-0.1503,-0.1523,-0.1553,-0.1556,-0.1562,-0.1607,-0.1568,-0.1618,-0.1629,-0.1619,-0.1621,-0.1622,-0.1558,-0.1553,-0.1618,-0.1618,-0.1618,0,-0.1425,-0.1418,-0.1422,-0.1422,-0.1425,-0.1435,-0.1423,-0.1436,-0.1448,-0.144,-0.1468,-0.1478,-0.1487,-0.1515,-0.153,-0.1518,-0.154,-0.1557,-0.156,-0.1552,-0.154,-0.1542,-0.1544,-0.1516,-0.1515,-0.1515,0,0,-0.1413,-0.1414,-0.1408,-0.1417,-0.142,-0.142,-0.1427,-0.1424,-0.1431,-0.1437,-0.1445,-0.1457,-0.1474,-0.1483,-0.1498,-0.1528,-0.1498,-0.1545,-0.1549,-0.1553,-0.1547,-0.1537,-0.1539,-0.1514,-0.1514,-0.1514,0,0,-0.1406,-0.1394,-0.139,-0.1397,-0.1401,-0.1397,-0.1411,-0.1409,-0.1425,-0.1426,-0.1423,-0.1425,-0.1457,-0.1458,-0.1441,-0.1489,-0.147,-0.1474,-0.1486,-0.1492,-0.1496,-0.1484,-0.1418,0,0,0,0,0,-0.1385,-0.1395,-0.1391,-0.1391,-0.1391,-0.14,-0.1402,-0.1398,-0.1395,-0.1406,-0.1414,-0.1404,-0.1446,-0.1431,-0.1435,-0.1455,-0.1497,-0.15,-0.1503,-0.1526,-0.1532,-0.1538,0,0,0,0,0,0,-0.1385,-0.1384,-0.1391,-0.1385,-0.1386,-0.1399,-0.1381,-0.1381,-0.1393,-0.1392,-0.1403,-0.1404,-0.1397,-0.1428,-0.1432,-0.1451,-0.1417,-0.1498,-0.15,-0.1503,-0.1528,-0.1533,-0.1538,0,0,0,0,0,-0.1385,-0.1384,-0.1383,-0.1386,-0.1386,-0.1384,-0.138,-0.138,-0.1393,-0.139,-0.1391,-0.139,-0.1397,-0.1401,-0.143,-0.1449,-0.1414,-0.1416,-0.1499,-0.1502,-0.1503,-0.1531,0,0,0,0,0,0,-0.1385,-0.1388,-0.1383,-0.1384,-0.1379,-0.1384,-0.1383,-0.1379,-0.139,-0.1391,-0.1376,-0.1375,-0.1398,-0.1401,-0.1404,-0.1449,-0.1411,-0.1413,-0.1414,-0.1501,-0.1503,-0.1504,0,0,0,0,0,0,-0.1388,-0.1388,-0.1383,-0.1374,-0.1374,-0.1383,-0.1383,-0.1402,-0.1391,-0.1376,-0.1375,-0.1375,-0.1396,-0.1401,-0.1403,-0.1433,-0.141,-0.1411,-0.1412,-0.1413,-0.1502,-0.1504,0,0,0,0,0,0,-0.1388,-0.1388,-0.1374,-0.1374,-0.1373,-0.138,-0.1401,-0.1404,-0.1377,-0.1376,-0.1375,-0.1374,-0.1396,-0.1398,-0.1402,-0.1432,-0.1433,-0.141,-0.1411,-0.1411,-0.1412,0,0,0,0,0,0,0,-0.1388,-0.1386,-0.1379,-0.1373,-0.1373,-0.1389,-0.1389,-0.1389,-0.1376,-0.1376,-0.1375,-0.1374,-0.1401,-0.1402,-0.1404,-0.143,0,0,-0.1409,-0.141,0,0,0,0,0,0,0,0,-0.1386,-0.1386,-0.1379,-0.1379,-0.1379,-0.1389,-0.1389,-0.1389,-0.1376,-0.1376,-0.1375,-0.1375,-0.1401,-0.1402,-0.1404,0,0,0,0,0,0,0,0,0,0,0,0,0,0,0,-0.1379,-0.1379,0,-0.1389,-0.1389,-0.1389,-0.1376,-0.1376,-0.1375,-0.1375,-0.1401,-0.1403,-0.1404,0,0,0,0,0,0,0,0,0,0,0,0,0,0,0,0,0,0,0,0,0,0,0,0,0,0,0,0,0,0,0,0,0,0,0,0,0,0,0,0,0,0,0,0,0,0,0,0,0,0,0,0,0,0,0,0,0,0,0,0,0,0,0,0,0,0,0,0,0]}],[{"header":{"parameterUnit":"kt","parameterCategory":2,"dx":1,"dy":1,"la1":30.253999710083008,"la2":30.299108505249023,"lo1":-89.0895004272461,"lo2":-89.04439544677734,"nx":28,"ny":28,"refTime":"2022-09-29T21:00:00:Z","depth":"4","parameterNumber":3,"parameterNumberName":"V-component_of_CURRENTS"},"data":[-0.0503,-0.0558,-0.0587,-0.0624,-0.0651,-0.0682,-0.0686,-0.0676,-0.0634,-0.0606,-0.0553,-0.0532,-0.0449,-0.0463,-0.0372,-0.0364,-0.0248,-0.0309,-0.0309,-0.0097,-0.0086,-0.0076,-0.029,0,0,0,0,0,-0.0505,-0.0543,-0.0592,-0.0645,-0.0682,-0.0701,-0.0712,-0.0713,-0.0691,-0.0627,-0.0603,-0.0535,-0.0455,-0.0416,-0.0377,-0.0388,-0.0236,-0.0346,-0.0167,-0.009,-0.0078,-0.0291,0,0,0,0,0,0,-0.0513,-0.0542,-0.0602,-0.0648,-0.0691,-0.0704,-0.0716,-0.0694,-0.0674,-0.061,-0.059,-0.0508,-0.0461,-0.0397,-0.0322,-0.0272,-0.0221,-0.0165,-0.0149,-0.0137,-0.0317,-0.0391,-0.0334,0,0,0,0,0,-0.0517,-0.0553,-0.0588,-0.0651,-0.0688,-0.071,-0.073,-0.0717,-0.0697,-0.0675,-0.0593,-0.0535,-0.0459,-0.037,-0.0301,-0.0182,-0.0097,-0.0073,-0.0063,-0.0101,-0.0137,-0.0116,-0.0122,-0.003,-0.0029,-0.0028,-0.0027,0,-0.052,-0.0548,-0.0616,-0.0644,-0.0674,-0.0706,-0.0721,-0.0718,-0.0706,-0.065,-0.0624,-0.0552,-0.0511,-0.0348,-0.0292,-0.0129,-0.013,-0.0042,-0.0084,-0.0118,-0.0098,-0.0108,-0.0118,-0.0017,-0.0018,-0.0019,-0.0019,0,-0.0519,-0.0558,-0.0601,-0.0647,-0.0663,-0.0684,-0.0708,-0.0702,-0.0682,-0.0648,-0.0634,-0.0568,-0.0486,-0.0399,-0.0226,-0.0199,-0.0089,-0.0066,-0.0026,0.0003,-0.0092,-0.0106,-0.0001,-0.0004,-0.0007,-0.001,-0.0012,0,-0.0523,-0.0553,-0.0606,-0.0626,-0.0656,-0.0675,-0.0688,-0.0688,-0.0664,-0.0644,-0.0611,-0.0575,-0.0482,-0.0401,-0.0303,-0.0223,-0.0139,-0.0157,-0.0128,-0.0094,-0.0106,-0.0051,-0.0059,0.0001,-0.0001,-0.0002,-0.0004,0,-0.0504,-0.0561,-0.0601,-0.0616,-0.0651,-0.0667,-0.0681,-0.0673,-0.0667,-0.063,-0.0602,-0.055,-0.0512,-0.0409,-0.0337,-0.0336,-0.017,-0.0139,-0.0157,-0.0162,-0.0065,-0.007,-0.0006,-0.0006,-0.0007,-0.0008,-0.0008,0,-0.0506,-0.0534,-0.0588,-0.0615,-0.0624,-0.0652,-0.0653,-0.0667,-0.0641,-0.0627,-0.0604,-0.0573,-0.0533,-0.0535,-0.0399,-0.0458,-0.0359,-0.0291,-0.028,-0.0389,-0.0374,-0.0148,-0.0127,-0.0129,-0.0132,-0.0134,-0.0135,0,-0.0469,-0.0525,-0.0544,-0.0589,-0.0612,-0.0617,-0.0634,-0.0638,-0.063,-0.061,-0.0588,-0.0571,-0.0586,-0.0569,-0.0538,-0.0462,-0.0393,-0.0491,-0.0258,-0.025,-0.0376,-0.0391,-0.0415,-0.0165,-0.0161,-0.0159,-0.0157,0,-0.0437,-0.049,-0.0498,-0.0515,-0.0548,-0.0559,-0.0586,-0.0594,-0.0589,-0.0598,-0.0577,-0.0592,-0.0567,-0.0556,-0.0538,-0.0499,-0.0428,-0.0468,-0.0463,-0.0358,-0.0255,-0.0404,-0.04,-0.0424,-0.0422,-0.0421,-0.0177,0,-0.0424,-0.0453,-0.0469,-0.0504,-0.0518,-0.054,-0.0547,-0.0558,-0.0558,-0.0551,-0.0547,-0.0532,-0.0512,-0.0519,-0.0512,-0.049,-0.044,-0.0443,-0.0404,-0.0422,-0.0311,-0.0295,-0.0464,-0.0463,-0.0462,-0.0461,0,0,-0.038,-0.0413,-0.0419,-0.0446,-0.0457,-0.0455,-0.0481,-0.0488,-0.0494,-0.0488,-0.0489,-0.0469,-0.0462,-0.0453,-0.0474,-0.0468,-0.0404,-0.0453,-0.0426,-0.0423,-0.0419,-0.0315,-0.0301,-0.0459,-0.0459,-0.0459,-0.0458,0,-0.0371,-0.0382,-0.0409,-0.0421,-0.0439,-0.044,-0.0449,-0.0455,-0.0458,-0.0473,-0.0452,-0.0448,-0.0443,-0.0428,-0.042,-0.0455,-0.038,-0.0457,-0.0479,-0.042,-0.0418,-0.0416,-0.0314,-0.0302,-0.0456,-0.0456,-0.0456,0,-0.0344,-0.0355,-0.0367,-0.0387,-0.0393,-0.0414,-0.0394,-0.0412,-0.0428,-0.0392,-0.041,-0.0397,-0.0376,-0.0385,-0.0387,-0.037,-0.0341,-0.0382,-0.0387,-0.0376,-0.0313,-0.0312,-0.0311,-0.032,-0.032,-0.0319,0,0,-0.0335,-0.0357,-0.0363,-0.0383,-0.039,-0.039,-0.0397,-0.0397,-0.0396,-0.0398,-0.0385,-0.0373,-0.0368,-0.0363,-0.0356,-0.036,-0.0299,-0.0367,-0.0374,-0.0379,-0.0372,-0.0311,-0.031,-0.0318,-0.0318,-0.0318,0,0,-0.0327,-0.0341,-0.0341,-0.0365,-0.0374,-0.0372,-0.0386,-0.0382,-0.0385,-0.0385,-0.0358,-0.0353,-0.0363,-0.0343,-0.0333,-0.0345,-0.0316,-0.0318,-0.0361,-0.0369,-0.0375,-0.0369,-0.0298,0,0,0,0,0,-0.0319,-0.0339,-0.034,-0.0344,-0.0359,-0.0373,-0.0374,-0.0373,-0.0366,-0.038,-0.0369,-0.0345,-0.0335,-0.0326,-0.0321,-0.0337,-0.0305,-0.0308,-0.031,-0.0367,-0.0375,-0.0382,0,0,0,0,0,0,-0.0321,-0.0326,-0.0339,-0.0339,-0.0342,-0.0372,-0.0354,-0.0353,-0.0365,-0.0365,-0.0348,-0.0344,-0.0324,-0.0326,-0.0322,-0.0338,-0.0299,-0.0306,-0.0308,-0.031,-0.037,-0.0377,-0.0382,0,0,0,0,0,-0.0322,-0.0326,-0.0353,-0.0338,-0.0341,-0.0343,-0.0353,-0.0353,-0.0364,-0.0339,-0.0336,-0.0364,-0.0325,-0.0321,-0.0324,-0.034,-0.0302,-0.03,-0.0307,-0.0309,-0.031,-0.0373,0,0,0,0,0,0,-0.0323,-0.0323,-0.0354,-0.0354,-0.0335,-0.0341,-0.0343,-0.0353,-0.0338,-0.0336,-0.0352,-0.0352,-0.0325,-0.0322,-0.0319,-0.0343,-0.0303,-0.0302,-0.0301,-0.0309,-0.031,-0.0311,0,0,0,0,0,0,-0.0321,-0.0323,-0.0354,-0.035,-0.035,-0.034,-0.0342,-0.033,-0.0336,-0.0351,-0.0351,-0.0352,-0.0321,-0.0323,-0.032,-0.0302,-0.0305,-0.0304,-0.0303,-0.0302,-0.031,-0.0311,0,0,0,0,0,0,-0.0321,-0.0324,-0.035,-0.035,-0.035,-0.0354,-0.0328,-0.0339,-0.0352,-0.0351,-0.0351,-0.0351,-0.0322,-0.032,-0.0321,-0.0305,-0.0303,-0.0305,-0.0304,-0.0303,-0.0303,0,0,0,0,0,0,0,-0.0322,-0.031,-0.0352,-0.035,-0.035,-0.0358,-0.0358,-0.0358,-0.0352,-0.0352,-0.0351,-0.0351,-0.0312,-0.031,-0.0309,-0.0306,0,0,-0.0305,-0.0304,0,0,0,0,0,0,0,0,-0.0309,-0.031,-0.0352,-0.0352,-0.0352,-0.0358,-0.0358,-0.0358,-0.0352,-0.0352,-0.0351,-0.0351,-0.0311,-0.031,-0.0309,0,0,0,0,0,0,0,0,0,0,0,0,0,0,0,-0.0352,-0.0352,0,-0.0358,-0.0358,-0.0358,-0.0352,-0.0352,-0.0352,-0.0351,-0.0311,-0.031,-0.0309,0,0,0,0,0,0,0,0,0,0,0,0,0,0,0,0,0,0,0,0,0,0,0,0,0,0,0,0,0,0,0,0,0,0,0,0,0,0,0,0,0,0,0,0,0,0,0,0,0,0,0,0,0,0,0,0,0,0,0,0,0,0,0,0,0,0,0,0,0]}]]]